Location: New Plymouth
(39.0670°S, 174.0830°E)
Time: 22:22:44
(UTC+13:00)

CZ-2D R/B - Pass Details

Date: 24 January 2019
Orbit: 523 x 538 km, 97.4° (Epoch: 17 October)

Event Time Altitude Azimuth Distance (km) Brightness Sun altitude
Rises 21:22:45 0° 170° (S) 2,732 7.2 -7.0°
Reaches altitude 10° 21:24:53 10° 170° (S) 1,833 6.3 -7.4°
Maximum altitude 21:28:51 83° 256° (WSW) 558 3.4 -8.0°
Drops below altitude 10° 21:32:46 10° 344° (NNW) 1,806 5.8 -8.7°
Sets 21:34:52 0° 345° (NNW) 2,689 6.6 -9.0°
